• In Österreich
  • Länderverzeichnis
  • Für 7 Tage
  • Wassertemperatur
  • Satellitenkarten
  • Wetterkarte
  • News
  • Widgets
  • user-avatar
    Anmelden

    Stündliche Wetter Tavas

    Heute, 22 Juli, Sonntag

    Zeit Temperatur Niederschläge Wind Luftdruck Luftfeuchtigkeit
    00:00 +23°C° 0 mm 1 m/S 663 mmHg 50%
    01:00 +22°C° 0 mm 1 m/S 663 mmHg 53%
    02:00 +22°C° 0 mm 1 m/S 663 mmHg 56%
    03:00 +21°C° 0 mm 1 m/S 663 mmHg 60%
    04:00 +21°C° 0 mm 1 m/S 663 mmHg 63%
    05:00 +20°C° 0 mm 1 m/S 663 mmHg 66%
    06:00 +21°C° 0 mm 2 m/S 663 mmHg 61%
    07:00 +24°C° 0 mm 2 m/S 664 mmHg 55%
    08:00 +25°C° 0 mm 2 m/S 664 mmHg 49%
    09:00 +27°C° 0 mm 3 m/S 664 mmHg 44%
    10:00 +28°C° 0 mm 3 m/S 665 mmHg 38%
    11:00 +29°C° 0 mm 3 m/S 665 mmHg 32%
    12:00 +30°C° 0 mm 4 m/S 665 mmHg 29%
    13:00 +32°C° 0 mm 4 m/S 665 mmHg 26%
    14:00 +33°C° 0 mm 5 m/S 665 mmHg 23%
    15:00 +33°C° 0 mm 5 m/S 664 mmHg 22%
    16:00 +33°C° 0 mm 5 m/S 664 mmHg 22%
    17:00 +32°C° 0 mm 5 m/S 664 mmHg 22%
    18:00 +30°C° 0 mm 4 m/S 664 mmHg 25%
    19:00 +28°C° 0 mm 3 m/S 663 mmHg 29%
    20:00 +26°C° 0 mm 2 m/S 663 mmHg 32%
    21:00 +25°C° 0 mm 2 m/S 663 mmHg 35%
    22:00 +24°C° 0 mm 1 m/S 663 mmHg 38%
    23:00 +23°C° 0 mm 1 m/S 663 mmHg 41%

    Morgen, 23 Juli, Montag

    Zeit Temperatur Niederschläge Wind Luftdruck Luftfeuchtigkeit
    00:00 +23°C° 0 mm 1 m/S 663 mmHg 43%
    01:00 +22°C° 0 mm 1 m/S 663 mmHg 45%
    02:00 +21°C° 0 mm 1 m/S 662 mmHg 47%
    03:00 +21°C° 0 mm 1 m/S 662 mmHg 49%
    04:00 +19°C° 0 mm 0 m/S 662 mmHg 50%
    05:00 +18°C° 0 mm 0 m/S 661 mmHg 51%
    06:00 +21°C° 0 mm 0 m/S 662 mmHg 44%
    07:00 +23°C° 0 mm 0 m/S 662 mmHg 38%
    08:00 +25°C° 0 mm 0 m/S 663 mmHg 31%
    09:00 +29°C° 0 mm 1 m/S 663 mmHg 28%
    10:00 +30°C° 0 mm 2 m/S 663 mmHg 25%
    11:00 +32°C° 0 mm 2 m/S 663 mmHg 22%
    12:00 +34°C° 0 mm 3 m/S 663 mmHg 21%
    13:00 +34°C° 0 mm 4 m/S 663 mmHg 19%
    14:00 +35°C° 0 mm 5 m/S 663 mmHg 18%
    15:00 +35°C° 0 mm 6 m/S 662 mmHg 18%
    16:00 +34°C° 0 mm 6 m/S 662 mmHg 19%
    17:00 +34°C° 0 mm 6 m/S 662 mmHg 20%
    18:00 +32°C° 0 mm 5 m/S 661 mmHg 24%
    19:00 +28°C° 0 mm 3 m/S 661 mmHg 29%
    20:00 +26°C° 0 mm 2 m/S 661 mmHg 34%
    21:00 +25°C° 0 mm 2 m/S 661 mmHg 35%
    22:00 +25°C° 0 mm 2 m/S 660 mmHg 37%
    23:00 +24°C° 0 mm 1 m/S 660 mmHg 39%

    übermorgen, 24 Juli, Dienstag

    Zeit Temperatur Niederschläge Wind Luftdruck Luftfeuchtigkeit
    00:00 +23°C° 0 mm 2 m/S 660 mmHg 39%
    01:00 +23°C° 0 mm 2 m/S 660 mmHg 40%
    02:00 +23°C° 0 mm 2 m/S 659 mmHg 40%
    03:00 +21°C° 0 mm 2 m/S 659 mmHg 41%
    04:00 +21°C° 0 mm 3 m/S 658 mmHg 42%
    05:00 +20°C° 0 mm 3 m/S 658 mmHg 43%
    06:00 +22°C° 0 mm 3 m/S 659 mmHg 39%
    07:00 +25°C° 0 mm 4 m/S 659 mmHg 35%
    08:00 +26°C° 0 mm 5 m/S 660 mmHg 31%
    09:00 +27°C° 0 mm 6 m/S 660 mmHg 29%
    10:00 +28°C° 0 mm 7 m/S 660 mmHg 26%
    11:00 +29°C° 0 mm 8 m/S 661 mmHg 23%
    12:00 +31°C° 0 mm 8 m/S 661 mmHg 23%
    13:00 +31°C° 0 mm 8 m/S 661 mmHg 23%
    14:00 +31°C° 0 mm 9 m/S 660 mmHg 23%
    15:00 +31°C° 0 mm 8 m/S 660 mmHg 24%
    16:00 +29°C° 0 mm 7 m/S 660 mmHg 26%
    17:00 +28°C° 0 mm 7 m/S 660 mmHg 27%
    18:00 +26°C° 0 mm 5 m/S 660 mmHg 33%
    19:00 +25°C° 0 mm 4 m/S 660 mmHg 38%
    20:00 +23°C° 0 mm 2 m/S 660 mmHg 43%
    21:00 +21°C° 0 mm 2 m/S 660 mmHg 46%
    22:00 +20°C° 0 mm 2 m/S 660 mmHg 50%
    23:00 +20°C° 0 mm 1 m/S 660 mmHg 53%

    25 Juli, Mittwoch

    Zeit Temperatur Niederschläge Wind Luftdruck Luftfeuchtigkeit
    00:00 +20°C° 0 mm 1 m/S 659 mmHg 56%
    01:00 +19°C° 0 mm 1 m/S 659 mmHg 59%
    02:00 +17°C° 0 mm 0 m/S 659 mmHg 62%
    03:00 +16°C° 0 mm 0 m/S 659 mmHg 64%
    04:00 +16°C° 0 mm 0 m/S 659 mmHg 66%
    05:00 +15°C° 0 mm 0 m/S 659 mmHg 68%
    06:00 +17°C° 0 mm 0 m/S 659 mmHg 62%
    07:00 +19°C° 0 mm 0 m/S 660 mmHg 55%
    08:00 +21°C° 0 mm 0 m/S 661 mmHg 48%
    09:00 +22°C° 0 mm 0 m/S 661 mmHg 43%
    10:00 +26°C° 0 mm 1 m/S 661 mmHg 37%
    11:00 +27°C° 0 mm 1 m/S 662 mmHg 31%
    12:00 +28°C° 0 mm 1 m/S 662 mmHg 30%
    13:00 +29°C° 0 mm 2 m/S 662 mmHg 28%
    14:00 +29°C° 0 mm 2 m/S 662 mmHg 26%
    15:00 +29°C° 0 mm 2 m/S 662 mmHg 28%
    16:00 +29°C° 0 mm 3 m/S 662 mmHg 29%
    17:00 +29°C° 0 mm 3 m/S 662 mmHg 31%
    18:00 +27°C° 0 mm 3 m/S 661 mmHg 36%
    19:00 +25°C° 0 mm 2 m/S 661 mmHg 41%
    20:00 +24°C° 0 mm 2 m/S 661 mmHg 46%
    21:00 +23°C° 0 mm 1 m/S 661 mmHg 50%
    22:00 +22°C° 0 mm 1 m/S 661 mmHg 54%
    23:00 +21°C° 0 mm 1 m/S 661 mmHg 58%

    26 Juli, Donnerstag

    Zeit Temperatur Niederschläge Wind Luftdruck Luftfeuchtigkeit
    00:00 +21°C° 0 mm 1 m/S 661 mmHg 60%
    01:00 +20°C° 0 mm 1 m/S 661 mmHg 62%
    02:00 +20°C° 0 mm 1 m/S 660 mmHg 65%
    03:00 +19°C° 0 mm 1 m/S 660 mmHg 66%
    04:00 +19°C° 0 mm 1 m/S 660 mmHg 67%
    05:00 +19°C° 0 mm 1 m/S 660 mmHg 69%
    06:00 +20°C° 0 mm 1 m/S 661 mmHg 63%
    07:00 +22°C° 0 mm 1 m/S 661 mmHg 56%
    08:00 +24°C° 0 mm 1 m/S 662 mmHg 50%
    09:00 +25°C° 0 mm 1 m/S 662 mmHg 46%
    10:00 +27°C° 0 mm 1 m/S 662 mmHg 41%
    11:00 +28°C° 0 mm 1 m/S 663 mmHg 36%
    12:00 +29°C° 0 mm 1 m/S 663 mmHg 35%
    13:00 +29°C° 0 mm 2 m/S 663 mmHg 34%
    14:00 +29°C° 0 mm 2 m/S 662 mmHg 33%
    15:00 +29°C° 0 mm 2 m/S 662 mmHg 35%
    16:00 +29°C° 0 mm 2 m/S 662 mmHg 37%
    17:00 +28°C° 0 mm 3 m/S 662 mmHg 39%
    18:00 +27°C° 0,1 mm 2 m/S 662 mmHg 44%
    19:00 +25°C° 0,1 mm 2 m/S 662 mmHg 49%
    20:00 +24°C° 0,1 mm 2 m/S 662 mmHg 54%
    21:00 +23°C° 0,1 mm 1 m/S 662 mmHg 58%
    22:00 +22°C° 0,1 mm 1 m/S 662 mmHg 62%
    23:00 +22°C° 0,1 mm 1 m/S 662 mmHg 66%

    27 Juli, Freitag

    Zeit Temperatur Niederschläge Wind Luftdruck Luftfeuchtigkeit
    00:00 +21°C° 0 mm 1 m/S 662 mmHg 68%
    01:00 +21°C° 0 mm 1 m/S 662 mmHg 70%
    02:00 +20°C° 0 mm 1 m/S 662 mmHg 72%
    03:00 +20°C° 0 mm 1 m/S 662 mmHg 73%
    04:00 +19°C° 0 mm 1 m/S 662 mmHg 75%
    05:00 +19°C° 0 mm 1 m/S 662 mmHg 76%
    06:00 +21°C° 0 mm 1 m/S 662 mmHg 70%
    07:00 +22°C° 0 mm 1 m/S 662 mmHg 63%
    08:00 +24°C° 0 mm 1 m/S 663 mmHg 57%
    09:00 +26°C° 0 mm 1 m/S 663 mmHg 51%
    10:00 +27°C° 0 mm 1 m/S 663 mmHg 45%
    11:00 +29°C° 0 mm 2 m/S 664 mmHg 40%
    12:00 +29°C° 0 mm 2 m/S 663 mmHg 38%
    13:00 +30°C° 0 mm 2 m/S 663 mmHg 36%
    14:00 +30°C° 0 mm 2 m/S 663 mmHg 34%
    15:00 +30°C° 0 mm 2 m/S 663 mmHg 35%
    16:00 +30°C° 0 mm 2 m/S 663 mmHg 36%
    17:00 +29°C° 0 mm 3 m/S 663 mmHg 37%
    18:00 +28°C° 0,1 mm 2 m/S 663 mmHg 41%
    19:00 +27°C° 0,1 mm 2 m/S 663 mmHg 45%
    20:00 +25°C° 0,1 mm 2 m/S 663 mmHg 50%
    21:00 +24°C° 0 mm 2 m/S 663 mmHg 53%
    22:00 +24°C° 0 mm 2 m/S 662 mmHg 56%
    23:00 +23°C° 0 mm 1 m/S 662 mmHg 59%
    Mehr zeigen